Location: Aytr�
(46.1357°N, 1.1145°W)
Time: 21:00:47
(UTC+00:00)

SKYMED 2 - Pass Details

Date: 03 March 2021
Orbit: 621 x 623 km, 97.9° (Epoch: 20 April)

Event Time Altitude Azimuth Distance (km) Brightness Sun altitude
Rises 18:31:01 0° 10° (N) 2,917 6.9 -7.2°
Reaches altitude 10° 18:33:14 10° 7° (N) 2,006 6.1 -7.6°
Maximum altitude 18:37:33 64° 286° (WNW) 692 4.1 -8.4°
Drops below altitude 10° 18:41:50 10° 206° (SSW) 1,988 6.5 -9.1°
Sets 18:44:01 0° 203° (SSW) 2,890 7.3 -9.5°
